Miscellaneous Local Product
Issued by NWS Hastings, NE

Home | Current Version | Previous Version | Graphics & Text | Print | Product List | Glossary On
Versions: 1 2 3 4 5 6 7 8 9 10 11 12 13 14 15 16 17 18 19 20 21 22 23 24 25 26 27 28 29 30 31 32 33 34 35 36 37 38 39 40 41 42 43 44 45 46 47 48 49 50
000
AXUS43 KGID 230302
MISGRI

GID CWA HOURLY WEATHER ROUNDUP
NATIONAL WEATHER SERVICE HASTINGS NE
1000 PM CDT FRI MAY 22 2015

NOTE: "FAIR" INDICATES FEW OR NO CLOUDS BELOW 12,000 FEET WITH NO
SIGNIFICANT WEATHER AND/OR OBSTRUCTIONS TO VISIBILITY.

...SOUTH CENTRAL NEBRASKA...

CITY           SKY/WX    TMP DP  RH WIND       PRES   REMARKS
GRAND ISLAND   CLOUDY    54  48  80 SE12      30.15F
HASTINGS       CLOUDY    53  51  93 SE7       30.15R
KEARNEY        CLOUDY    52  48  87 SE15      30.13S
ORD            LGT RAIN  49  48  97 E7        30.15S FOG
YORK           CLOUDY    55  46  71 SE8       30.16S
AURORA         CLOUDY    56  47  73 SE7       30.16R
LEXINGTON      CLOUDY    52  51  97 SE12      30.11S FOG
HOLDREGE       CLOUDY    52  50  95 SE15      30.11S FOG
HEBRON         CLOUDY    58  49  70 SE6       30.16R

...NEBRASKA PANHANDLE...

CITY           SKY/WX    TMP DP  RH WIND       PRES   REMARKS
CHADRON        CLOUDY    49  44  83 E5        30.08S
ALLIANCE       CLOUDY    46  44  93 SE15      30.08R
SCOTTSBLUFF    CLOUDY    47  45  93 SE16      30.07R
SIDNEY         CLOUDY    45  44  97 E12       30.07R FOG

...WESTERN AND NORTH CENTRAL NEBRASKA...

CITY           SKY/WX    TMP DP  RH WIND       PRES   REMARKS
VALENTINE      CLOUDY    49  43  80 SE10      30.15R
AINSWORTH      DRIZZLE   47  46  94 SE6       30.15S
ONEILL         DRIZZLE   51  49  94 SE7       30.18R
BROKEN BOW     LGT RAIN  50  48  93 E10       30.13S FOG
IMPERIAL       CLOUDY    49  48  97 SE16      30.04S
NORTH PLATTE   LGT RAIN  49  47  93 E13       30.09F
MCCOOK         CLOUDY    52  51  97 E13       30.07S FOG

...EASTERN NEBRASKA...

CITY           SKY/WX    TMP DP  RH WIND       PRES   REMARKS
NORFOLK        CLOUDY    53  51  93 E3        30.17S
SO SIOUX CITY  CLOUDY    59  47  64 SE8       30.19R
TEKAMAH        CLOUDY    59  51  75 SE3       30.18R
COLUMBUS       CLOUDY    57  45  62 S6        30.20S
ALBION         DRIZZLE   52  49  91 NE3       30.17S
OMAHA EPPLEY   CLOUDY    61  48  62 SE7       30.19R
OFFUTT AFB     MOCLDY    59  51  75 E5        30.18R
MILLARD        CLOUDY    62  49  63 SE5       30.18S
LINCOLN        CLOUDY    61  46  57 SE8       30.18S
NEBRASKA CITY  CLOUDY    60  45  57 SE6       30.19S
BEATRICE       CLOUDY    59  45  59 SE12      30.18R
FALLS CITY     CLOUDY    59  49  69 S5        30.19R

...NORTHERN KANSAS...

CITY           SKY/WX    TMP DP  RH WIND       PRES   REMARKS
GOODLAND       FOG       52  52 100 SE20      30.02S VSB 1/2
HILL CITY      CLOUDY    55  54  96 SE7       30.09R
NORTON         CLOUDY    54  50  87 E12G17    30.09S FOG
PHILLIPSBURG   CLOUDY    57  57 100 E10G20    30.11R
SMITH CENTER   CLOUDY    54  54 100 SE15G21   30.13S FOG
HAYS           CLOUDY    55  48  76 SE13      30.11R
RUSSELL        CLOUDY    55  55 100 SE13      30.11R FOG
CONCORDIA      CLOUDY    57  49  74 SE12      30.15S
SALINA         CLOUDY    59  51  75 E9        30.15S
TOPEKA         CLOUDY    60  51  72 SE6       30.19S



USA.gov is the U.S. government's official web portal to all federal, state and local government web resources and services.